Previsão horária em Almata

Hoje, 22 Janeiro, Sexta-feira

Tempo Temperatura Precipitação Vento Pressão Humidade
00:00 +2°C° 0 mm 2 m/s 679 mmHg 45%
01:00 +2°C° 0 mm 2 m/s 679 mmHg 46%
02:00 +2°C° 0 mm 2 m/s 678 mmHg 47%
03:00 +2°C° 0 mm 2 m/s 678 mmHg 49%
04:00 +3°C° 0 mm 1 m/s 678 mmHg 50%
05:00 +3°C° 0 mm 1 m/s 678 mmHg 52%
06:00 +2°C° 0 mm 2 m/s 679 mmHg 55%
07:00 +1°C° 0 mm 2 m/s 680 mmHg 58%
08:00 -1°C° 0 mm 3 m/s 681 mmHg 60%
09:00 +1°C° 0.1 mm 2 m/s 682 mmHg 69%
10:00 +1°C° 0.1 mm 2 m/s 683 mmHg 78%
11:00 +2°C° 0.1 mm 1 m/s 684 mmHg 87%
12:00 -1°C° 1.2 mm 3 m/s 685 mmHg 86%
13:00 -3°C° 1.2 mm 4 m/s 686 mmHg 86%
14:00 -4°C° 1.2 mm 5 m/s 687 mmHg 86%
15:00 -5°C° 0.7 mm 4 m/s 689 mmHg 89%
16:00 -6°C° 0.7 mm 3 m/s 690 mmHg 92%
17:00 -6°C° 0.7 mm 2 m/s 692 mmHg 95%
18:00 -7°C° 0.5 mm 2 m/s 692 mmHg 95%
19:00 -6°C° 0.5 mm 1 m/s 693 mmHg 96%
20:00 -6°C° 0.5 mm 1 m/s 694 mmHg 97%
21:00 -7°C° 0.3 mm 1 m/s 694 mmHg 96%
22:00 -7°C° 0.3 mm 1 m/s 695 mmHg 96%
23:00 -7°C° 0.3 mm 1 m/s 695 mmHg 95%

Amanhã, 23 Janeiro, Sábado

Tempo Temperatura Precipitação Vento Pressão Humidade
00:00 -7°C° 0.2 mm 1 m/s 696 mmHg 94%
01:00 -8°C° 0.2 mm 1 m/s 696 mmHg 93%
02:00 -9°C° 0.2 mm 2 m/s 696 mmHg 92%
03:00 -10°C° 0.2 mm 2 m/s 697 mmHg 93%
04:00 -10°C° 0.2 mm 2 m/s 697 mmHg 93%
05:00 -12°C° 0.2 mm 2 m/s 697 mmHg 94%
06:00 -10°C° 0 mm 1 m/s 697 mmHg 91%
07:00 -9°C° 0 mm 1 m/s 697 mmHg 89%
08:00 -9°C° 0 mm 1 m/s 697 mmHg 86%
09:00 -8°C° 0 mm 1 m/s 697 mmHg 84%
10:00 -7°C° 0 mm 1 m/s 697 mmHg 82%
11:00 -6°C° 0 mm 1 m/s 696 mmHg 81%
12:00 -6°C° 0 mm 1 m/s 696 mmHg 82%
13:00 -7°C° 0 mm 2 m/s 696 mmHg 83%
14:00 -7°C° 0 mm 2 m/s 695 mmHg 85%
15:00 -7°C° 0 mm 1 m/s 695 mmHg 87%
16:00 -8°C° 0 mm 1 m/s 696 mmHg 89%
17:00 -9°C° 0 mm 1 m/s 696 mmHg 91%
18:00 -9°C° 0 mm 1 m/s 696 mmHg 89%
19:00 -9°C° 0 mm 1 m/s 696 mmHg 86%
20:00 -9°C° 0 mm 1 m/s 696 mmHg 84%
21:00 -8°C° 0.1 mm 1 m/s 697 mmHg 82%
22:00 -9°C° 0.1 mm 2 m/s 697 mmHg 80%
23:00 -8°C° 0.1 mm 2 m/s 697 mmHg 79%

Depois de amanhã, 24 Janeiro, Domingo

Tempo Temperatura Precipitação Vento Pressão Humidade
00:00 -8°C° 0.2 mm 2 m/s 697 mmHg 79%
01:00 -7°C° 0.2 mm 1 m/s 698 mmHg 80%
02:00 -6°C° 0.2 mm 1 m/s 698 mmHg 80%
03:00 -7°C° 0.1 mm 1 m/s 698 mmHg 78%
04:00 -8°C° 0.1 mm 2 m/s 699 mmHg 76%
05:00 -8°C° 0.1 mm 2 m/s 699 mmHg 74%
06:00 -8°C° 0 mm 2 m/s 700 mmHg 74%
07:00 -8°C° 0 mm 2 m/s 700 mmHg 74%
08:00 -8°C° 0 mm 2 m/s 701 mmHg 74%
09:00 -6°C° 0 mm 1 m/s 700 mmHg 75%
10:00 -3°C° 0 mm 1 m/s 700 mmHg 76%
11:00 -2°C° 0 mm 1 m/s 700 mmHg 77%
12:00 -2°C° 0 mm 1 m/s 700 mmHg 78%
13:00 -2°C° 0 mm 1 m/s 699 mmHg 79%
14:00 -2°C° 0 mm 1 m/s 699 mmHg 80%
15:00 -3°C° 0 mm 1 m/s 699 mmHg 79%
16:00 -4°C° 0 mm 1 m/s 698 mmHg 78%
17:00 -7°C° 0 mm 1 m/s 698 mmHg 77%
18:00 -7°C° 0 mm 1 m/s 698 mmHg 74%
19:00 -7°C° 0 mm 1 m/s 698 mmHg 70%
20:00 -7°C° 0 mm 1 m/s 699 mmHg 67%
21:00 -7°C° 0 mm 1 m/s 698 mmHg 69%
22:00 -7°C° 0 mm 1 m/s 698 mmHg 70%
23:00 -7°C° 0 mm 1 m/s 698 mmHg 72%

25 Janeiro, Segunda-feira

Tempo Temperatura Precipitação Vento Pressão Humidade
00:00 -7°C° 0 mm 1 m/s 698 mmHg 75%
01:00 -6°C° 0 mm 1 m/s 698 mmHg 79%
02:00 -6°C° 0 mm 1 m/s 698 mmHg 82%
03:00 -6°C° 0 mm 1 m/s 697 mmHg 83%
04:00 -6°C° 0 mm 1 m/s 697 mmHg 84%
05:00 -6°C° 0 mm 1 m/s 697 mmHg 84%
06:00 -6°C° 0 mm 1 m/s 697 mmHg 85%
07:00 -6°C° 0 mm 1 m/s 697 mmHg 85%
08:00 -6°C° 0 mm 1 m/s 697 mmHg 85%
09:00 -4°C° 0 mm 1 m/s 696 mmHg 85%
10:00 -3°C° 0 mm 1 m/s 696 mmHg 85%
11:00 -3°C° 0 mm 1 m/s 696 mmHg 85%
12:00 -2°C° 0 mm 1 m/s 695 mmHg 86%
13:00 -2°C° 0 mm 1 m/s 695 mmHg 87%
14:00 -4°C° 0 mm 2 m/s 694 mmHg 88%
15:00 -3°C° 0 mm 1 m/s 694 mmHg 89%
16:00 -4°C° 0 mm 1 m/s 694 mmHg 89%
17:00 -6°C° 0 mm 1 m/s 694 mmHg 90%
18:00 -7°C° 0 mm 1 m/s 694 mmHg 87%
19:00 -7°C° 0 mm 1 m/s 695 mmHg 84%
20:00 -7°C° 0 mm 1 m/s 695 mmHg 81%
21:00 -7°C° 0 mm 1 m/s 695 mmHg 80%
22:00 -7°C° 0 mm 1 m/s 695 mmHg 79%
23:00 -8°C° 0 mm 1 m/s 695 mmHg 78%

26 Janeiro, Terça-feira

Tempo Temperatura Precipitação Vento Pressão Humidade
00:00 -8°C° 0 mm 1 m/s 695 mmHg 77%
01:00 -8°C° 0 mm 1 m/s 695 mmHg 75%
02:00 -8°C° 0 mm 1 m/s 694 mmHg 74%
03:00 -8°C° 0 mm 1 m/s 694 mmHg 74%
04:00 -8°C° 0 mm 1 m/s 694 mmHg 73%
05:00 -8°C° 0 mm 1 m/s 694 mmHg 73%
06:00 -8°C° 0 mm 1 m/s 695 mmHg 73%
07:00 -8°C° 0 mm 1 m/s 695 mmHg 72%
08:00 -8°C° 0 mm 1 m/s 695 mmHg 72%
09:00 -6°C° 0 mm 1 m/s 695 mmHg 73%
10:00 -4°C° 0 mm 1 m/s 695 mmHg 74%
11:00 -3°C° 0 mm 1 m/s 695 mmHg 76%
12:00 -2°C° 0 mm 1 m/s 695 mmHg 78%
13:00 -2°C° 0 mm 1 m/s 694 mmHg 80%
14:00 -2°C° 0 mm 1 m/s 694 mmHg 83%
15:00 -3°C° 0 mm 1 m/s 694 mmHg 84%
16:00 -6°C° 0 mm 1 m/s 694 mmHg 85%
17:00 -7°C° 0 mm 0 m/s 694 mmHg 86%
18:00 -7°C° 0 mm 0 m/s 694 mmHg 83%
19:00 -7°C° 0 mm 1 m/s 695 mmHg 79%
20:00 -8°C° 0 mm 1 m/s 695 mmHg 75%
21:00 -8°C° 0 mm 1 m/s 695 mmHg 74%
22:00 -8°C° 0 mm 1 m/s 695 mmHg 73%
23:00 -8°C° 0 mm 1 m/s 695 mmHg 71%

27 Janeiro, Quarta-feira

Tempo Temperatura Precipitação Vento Pressão Humidade
00:00 -8°C° 0 mm 1 m/s 695 mmHg 71%
01:00 -8°C° 0 mm 1 m/s 695 mmHg 70%
02:00 -8°C° 0 mm 1 m/s 695 mmHg 69%
03:00 -8°C° 0 mm 1 m/s 695 mmHg 68%
04:00 -8°C° 0 mm 1 m/s 695 mmHg 67%
05:00 -9°C° 0 mm 1 m/s 695 mmHg 67%
06:00 -8°C° 0 mm 1 m/s 695 mmHg 67%
07:00 -8°C° 0 mm 1 m/s 695 mmHg 67%
08:00 -8°C° 0 mm 1 m/s 696 mmHg 68%
09:00 -7°C° 0 mm 1 m/s 695 mmHg 69%
10:00 -4°C° 0 mm 1 m/s 695 mmHg 71%
11:00 -3°C° 0 mm 1 m/s 695 mmHg 73%
12:00 -2°C° 0 mm 1 m/s 695 mmHg 75%
13:00 -2°C° 0 mm 1 m/s 694 mmHg 77%
14:00 -2°C° 0 mm 1 m/s 694 mmHg 79%
15:00 -3°C° 0 mm 1 m/s 694 mmHg 80%
16:00 -6°C° 0 mm 1 m/s 694 mmHg 82%
17:00 -7°C° 0 mm 0 m/s 694 mmHg 83%
18:00 -7°C° 0 mm 0 m/s 695 mmHg 80%
19:00 -7°C° 0 mm 1 m/s 695 mmHg 77%
20:00 -7°C° 0 mm 1 m/s 695 mmHg 74%
21:00 -7°C° 0 mm 1 m/s 695 mmHg 72%
22:00 -8°C° 0 mm 1 m/s 695 mmHg 70%
23:00 -8°C° 0 mm 1 m/s 696 mmHg 68%
Mostrar mais

Necessitamos do seu Consentimento

A Meteoprog e os seus Fornecedores de Serviços podem armazenar e aceder a dados pessoais como cookies, identificadores do dispositivo ou outras tecnologias semelhantes existentes no seu dispositivo e processar estes dados para personalizar conteúdos e anúncios, assim como funcionalidades nas redes sociais e análise de tráfego.

  • Armazenar e/ou aceder a informações no seu dispositivo

    Os cookies, identificadores do dispositivo ou outras informações podem ser armazenados ou acedidos no seu dispositivo, para os fins acima indicados.

  • Anúncios e conteúdos personalizados, medição de anúncios e conteúdos, dados sobre o público-alvo e desenvolvimento de produtos

    Os anúncios e os conteúdos podem ser personalizados com base num perfil. Podem ser adicionados dados adicionais para uma maior personalização dos anúncios e dos conteúdos. A eficácia dos anúncios e dos conteúdos pode ser medida. Podem ser obtidas informações sobre o público que visualizou os anúncios e os conteúdos. Estes dados podem ser usados para desenvolver ou melhorar sistemas, softwares ou a experiência do utilizador.

Ao clicar em "Eu concordo”, permitirá o uso de cookies, identificadores do dispositivo e web beacons mencionados ou outras tecnologias semelhantes. As configurações do navegador do seu dispositivo podem ser alteradas.

Para certos fins, podem ser invocados interesses legítimos ao invés de consentimento. Pode ler mais informação sobre este assunto na nossa Política de Privacidade e Cookies.